User: anonymous   Login
Location: Fouquenies
(49.4624°N, 2.0492°E)
Time: 22:05:25
(UTC+00:00)
Language:

USA 215 - Orbit

View from above orbital plane
View from above orbital plane
View from above satellite
View from above satellite

Ground track
Ground track

The orbit data is extracted from the following two-line orbital elements,

1 37162U 10046A   23126.42214920 0.00000000  00000-0  00000-0 0    01
2 37162 122.9958   5.3106 0003268 175.5347 184.6036 13.41441768    00
Epoch (UTC): 06 May 2023 10:07:53
Eccentricity: 0.0003268
inclination: 122.9958°
perigee height: 1101 km
apogee height: 1106 km
right ascension of ascending node: 5.3106°
argument of perigee: 175.5347°
revolutions per day: 13.41441768
mean anomaly at epoch: 184.6036°
orbit number at epoch: 0

The dashed part of the orbit path shows where the satellite is in the earth's shadow,  

DLR